{"data":{"norad_id":66873,"intl_designator":"2025-281AB","name":"STARLINK-36128","alt_names":[],"object_type":"PAYLOAD","status":"ACTIVE","operator":null,"country":"US","launch_date":"2025-12-02","launch_site_code":"AFETR","launch_vehicle":null,"mission":null,"orbit_class":"UNKNOWN","rcs_meters":null,"size_class":null,"mass_kg":null,"dimensions":null,"purposes":["comms"],"wikipedia_slug":null,"has_3d_model":false,"image_url":null,"decayed_at":null,"tle_current":{"epoch":"2026-05-25T01:02:18.737952Z","epoch_age_seconds":67970,"freshness":"FRESH","line1":"1 66873U 25281AB  26145.04327243  .00015439  00000+0  56941-3 0  9990","line2":"2 66873  42.9986 272.1935 0000920 293.8116  66.2639 15.27578236 27805","mean_motion":15.27578236,"eccentricity":9.2e-5,"inclination_deg":42.9986,"raan_deg":272.1935,"arg_perigee_deg":293.8116,"mean_anomaly_deg":66.2639,"bstar":0.00056941,"rev_number":2780,"period_min":94.266857569971,"perigee_km":482.42314848855,"apogee_km":483.68560770212,"semimajor_km":6861.1913780953,"source":"CELESTRAK","updated_at":"2026-05-25T13:38:21.376052Z"}}}